Vorticity
10 7 5 5 6 9 7 8 12 15 10 7 6 9 9 8 9 10 14 13 10 11 13 10 7 10 12 10 8 7 24 13 11 8 11 6 6 6
7 9 10 10 12 13 8 8 8 10 9 4 8 7 10 11 14 12 14 13 15 6 14 11 7 15 17 12 9 12 10 9 8 6 5 5 6 5
16 14 15 15 14 14 2 13 6 6 12 9 9 11 13 15 11 9 14 14 14 18 14 11 14 9 8 7 5 5 5 6 6 6 6 7 9 15
13 13 12 11 12 1 31 -5 5 9 10 11 12 15 14 9 14 16 19 16 16 13 12 6 6 6 6 6 7 8 8 9 10 11 14 22 27 14
10 9 7 7 6 5 4 14 8 12 11 11 15 15 10 19 19 13 14 10 7 5 5 6 7 8 7 8 9 12 13 15 19 25 16 9 8 9
9 8 8 7 8 10 11 10 12 12 11 14 17 12 12 13 13 7 5 5 6 6 7 7 7 8 10 11 13 16 19 18 10 8 8 9 9 8
8 8 10 12 12 11 12 13 12 13 15 16 14 13 13 7 6 5 6 6 7 7 8 9 11 13 13 17 17 13 9 8 9 8 8 8 9 9
8 11 13 14 12 12 13 14 14 17 15 12 14 10 6 6 6 6 7 8 9 10 11 12 13 14 17 12 8 9 9 8 8 8 8 8 9 9
12 14 13 12 13 16 15 18 17 13 12 13 8 6 6 7 7 8 9 10 10 11 12 14 15 14 9 8 9 9 8 9 8 8 9 9 10 9
13 14 15 16 17 18 18 15 13 14 10 7 6 7 7 8 9 9 10 9 9 11 14 13 11 8 8 9 8 9 9 8 8 8 8 8 8 8
17 17 19 19 17 15 12 12 12 8 6 6 7 8 9 9 9 10 9 8 11 13 12 9 7 7 8 8 8 8 8 8 7 8 8 8 8 9
17 18 15 12 13 13 13 10 7 7 7 8 9 9 10 9 10 8 7 9 11 12 9 8 7 7 8 8 9 8 8 8 7 7 7 8 8 9
13 12 14 14 13 11 8 7 7 7 8 8 9 10 10 9 8 7 9 10 10 10 8 8 7 7 7 9 9 8 9 8 8 8 8 8 8 8
12 14 12 10 8 7 7 7 8 8 8 9 10 10 8 8 8 9 10 9 9 9 9 8 7 7 7 8 9 10 10 9 9 9 9 8 8 8
12 12 9 7 7 7 7 8 8 8 9 10 10 8 8 8 8 9 10 9 9 9 9 9 9 9 9 9 9 11 11 10 11 11 11 12 12 11
11 9 7 7 7 7 8 8 8 8 9 10 9 8 7 9 10 10 10 9 8 8 8 8 8 9 9 9 10 11 9 11 12 11 10 12 13 14
8 7 7 7 7 7 8 7 8 8 10 10 8 8 9 9 10 9 8 8 9 9 9 8 8 9 9 9 11 11 11 11 9 12 13 15 18 16
7 6 6 7 7 7 7 7 7 9 9 8 7 7 7 8 9 9 9 9 10 10 9 9 10 9 8 10 11 11 12 11 13 15 14 12 17 21
6 6 6 6 7 7 7 7 7 7 8 8 6 6 6 6 6 6 6 8 12 13 12 10 8 8 9 10 12 13 13 13 12 13 13 13 15 19
6 6 6 6 6 6 6 7 7 7 7 6 6 6 6 6 7 6 6 5 10 13 11 8 8 8 10 9 13 15 10 12 11 12 14 13 15 18
6 6 6 6 6 6 6 7 6 7 6 6 6 6 7 7 7 6 5 4 9 13 10 8 7 8 10 11 15 11 15 12 11 11 15 14 16 19
8 7 6 6 6 6 6 6 6 7 7 7 6 7 7 5 4 5 4 4 11 12 9 8 8 9 9 12 10 12 15 13 10 11 13 11 12 14
8 8 7 7 7 7 6 7 7 7 8 6 5 -2 2 2 11 5 8 9 12 11 8 8 8 9 10 12 9 12 14 12 12 14 18 12 12 12
Height
3141 3140 3139 3137 3136 3135 3133 3131 3129 3126 3124 3126 3123 3122 3120 3118 3116 3114 3113 3112 3111 3110 3110 3109 3108 3106 3105 3104 3103 3102 3100 3099 3098 3097 3096 3095 3094 3093
3131 3130 3129 3128 3127 3125 3125 3123 3121 3120 3117 3116 3117 3114 3112 3110 3109 3107 3105 3105 3104 3104 3103 3103 3102 3100 3099 3098 3097 3097 3096 3094 3092 3091 3090 3089 3088 3087
3121 3119 3119 3118 3118 3117 3116 3115 3114 3112 3110 3109 3108 3107 3105 3103 3101 3100 3098 3098 3098 3098 3098 3097 3096 3096 3095 3093 3093 3092 3090 3088 3087 3086 3084 3083 3081 3080
3111 3110 3109 3109 3109 3110 3108 3108 3107 3104 3104 3102 3101 3099 3098 3096 3095 3093 3092 3092 3093 3092 3092 3093 3092 3091 3090 3088 3088 3086 3084 3082 3080 3079 3078 3076 3075 3074
3102 3101 3101 3101 3100 3101 3100 3099 3098 3097 3095 3095 3093 3092 3092 3090 3089 3089 3088 3089 3089 3089 3088 3088 3087 3086 3084 3083 3081 3078 3076 3075 3073 3072 3071 3071 3070 3069
3093 3092 3092 3092 3092 3093 3091 3090 3090 3089 3088 3088 3087 3086 3086 3085 3086 3086 3085 3085 3084 3083 3083 3082 3081 3079 3078 3076 3074 3072 3070 3069 3068 3067 3066 3065 3064 3064
3084 3083 3084 3084 3082 3082 3083 3082 3082 3081 3081 3081 3081 3081 3081 3081 3082 3082 3081 3080 3080 3077 3076 3075 3074 3073 3071 3070 3068 3067 3066 3065 3064 3062 3061 3060 3059 3058
3074 3074 3074 3075 3074 3074 3074 3075 3075 3075 3075 3075 3077 3077 3078 3078 3078 3077 3076 3075 3073 3072 3070 3070 3069 3067 3066 3065 3064 3062 3061 3060 3059 3057 3056 3055 3053 3052
3063 3064 3065 3066 3066 3067 3067 3068 3069 3069 3070 3071 3072 3073 3074 3073 3072 3071 3070 3069 3067 3067 3066 3065 3063 3062 3061 3061 3059 3058 3057 3056 3054 3052 3050 3049 3048 3046
3054 3056 3057 3058 3060 3060 3060 3061 3064 3065 3065 3067 3068 3069 3069 3067 3066 3066 3065 3063 3062 3061 3061 3059 3059 3058 3056 3056 3054 3053 3051 3050 3048 3046 3044 3043 3041 3039
3046 3048 3050 3052 3053 3055 3056 3057 3060 3060 3062 3062 3063 3064 3063 3062 3062 3060 3059 3058 3057 3057 3055 3054 3054 3052 3052 3051 3050 3047 3046 3044 3041 3040 3038 3036 3034 3032
3040 3042 3044 3046 3048 3050 3051 3054 3055 3056 3057 3058 3058 3058 3057 3057 3056 3055 3055 3054 3053 3052 3051 3050 3048 3047 3046 3045 3044 3041 3039 3036 3034 3031 3029 3027 3025 3024
3034 3037 3040 3042 3044 3046 3048 3050 3051 3052 3053 3053 3053 3053 3052 3052 3052 3051 3050 3049 3048 3047 3045 3044 3043 3041 3039 3038 3037 3034 3031 3028 3025 3022 3019 3017 3015 3013
3031 3034 3035 3038 3041 3043 3044 3045 3047 3047 3047 3048 3048 3048 3048 3048 3047 3046 3045 3043 3042 3042 3041 3039 3037 3035 3033 3031 3029 3026 3023 3020 3016 3013 3009 3006 3003 3001
3027 3030 3032 3034 3037 3039 3040 3041 3042 3042 3043 3043 3043 3044 3044 3043 3042 3040 3039 3038 3036 3035 3034 3033 3031 3028 3026 3023 3021 3019 3015 3013 3008 3003 2999 2997 2994 2991
3023 3026 3028 3031 3033 3034 3035 3036 3037 3038 3038 3038 3039 3039 3038 3037 3036 3035 3033 3032 3031 3029 3027 3025 3023 3020 3017 3014 3012 3011 3005 3001 2998 2993 2989 2987 2984 2980
3019 3023 3025 3027 3029 3029 3031 3032 3033 3033 3034 3034 3034 3034 3033 3031 3030 3029 3027 3026 3025 3022 3020 3017 3015 3012 3009 3006 3004 3000 2996 2991 2986 2982 2979 2975 2973 2968
3016 3018 3020 3023 3024 3025 3026 3027 3028 3029 3029 3029 3029 3028 3027 3026 3024 3023 3022 3020 3018 3015 3012 3009 3007 3004 3001 2999 2994 2991 2986 2980 2976 2972 2967 2961 2962 2959
3011 3013 3016 3018 3019 3020 3021 3022 3023 3023 3024 3023 3023 3022 3021 3020 3019 3017 3016 3013 3011 3008 3005 3001 2999 2996 2992 2990 2988 2981 2977 2973 2967 2963 2958 2953 2950 2950
3006 3008 3010 3012 3013 3014 3015 3016 3017 3017 3017 3016 3016 3016 3015 3013 3012 3010 3008 3006 3004 3001 2997 2994 2991 2988 2984 2981 2977 2975 2966 2962 2957 2953 2949 2944 2942 2939
3000 3002 3004 3005 3007 3007 3009 3009 3009 3009 3009 3009 3008 3008 3008 3006 3005 3002 3000 2998 2996 2993 2990 2987 2983 2980 2976 2972 2969 2967 2963 2956 2950 2945 2942 2937 2934 2932
2994 2995 2997 2998 2999 3000 3001 3001 3001 3001 3001 3001 3000 3000 2999 2998 2997 2995 2992 2990 2987 2985 2983 2980 2976 2972 2968 2963 2961 2958 2955 2949 2942 2937 2932 2927 2924 2922
2987 2988 2989 2990 2990 2991 2992 2992 2992 2993 2992 2992 2992 2991 2990 2989 2987 2985 2983 2981 2979 2977 2974 2972 2968 2965 2961 2956 2953 2949 2945 2941 2937 2933 2929 2922 2918 2915